Back to catalog

STARLINK-31262

AliveCommunicationsVLEO
NORAD 58847·PAYLOAD·🇺🇸 United States

Launched Jan 24, 2024 from Vandenberg Space Force Base

Loading…

Next Passes (next 24 hours)

TLE

FreshSource: CelesTrak SupGP

Epoch: Sep 14, 2026, 22:13 UTC

1 58847C 24017X   26257.92618056 -.00031609  00000+0 -93410-3 0  2572
2 58847  53.1567 133.4140 0001197  84.2357 182.7952 15.34399395    10

Track STARLINK-31262 in real time with AllMySat

Download on the App Store